• Join FlightAware (Why Join?)
  • Login
  • US Flag 
08:17PM EDT


 

Airport Tracker/Info


-or-


 

Live Flight TrackerFlight Track Log ✈ DAL268 ✈ 07-Jul-2013 ✈ KSFO - KJFK

Flight Track Log - Related Links

Times and Time Zones

All times are in EDT time to prevent confusion due to time zone crossing. See the DAL268 flight status page for this flight to view local times or setup timezone preferences in your user account.

Time Position Orientation Groundspeed Altitude Reporting Facility
EDT Latitude Longitude Course Direction KTS MPH feet Rate Location/Type
04:31PM 37.6333 -122.3667 22° Northeast 173 199 800  Level Northern Cal TRACON
04:32PM 37.6833 -122.3167 38° Northeast 230 265 3,100 2,820 Climbing Northern Cal TRACON
04:34PM 37.6214 -121.9815 45° Northeast  Level FlightAware Approximate
04:34PM 37.7997 -122.2261 32° Northeast 295 339 9,000  Level Oakland Center
04:35PM 37.7077 -121.8639 45° Northeast  Level FlightAware Approximate
04:35PM 37.8669 -122.1539 40° Northeast 316 364 11,200  Level Oakland Center
04:36PM 37.7936 -121.7461 58° Northeast  Level FlightAware Approximate
04:36PM 37.9500 -122.0672 39° Northeast 378 435 12,900  Level Oakland Center
04:37PM 37.9112 -121.7027 22° Northeast  Level FlightAware Approximate
04:37PM 38.0347 -121.9806 39° Northeast 391 450 14,000  Level Oakland Center
04:38PM 38.1211 -121.8903 39° Northeast 398 458 17,200 3,300 Climbing Oakland Center
04:39PM 38.2300 -121.7756 40° Northeast 417 480 20,900 2,880 Climbing Oakland Center
04:40PM 38.3217 -121.6800 39° Northeast 427 491 23,200 2,220 Climbing Oakland Center
04:41PM 38.4208 -121.5731 40° Northeast 454 522 25,500 2,160 Climbing Oakland Center
04:42PM 38.5050 -121.4469 50° Northeast 479 551 27,700 1,800 Climbing Oakland Center
04:43PM 38.5858 -121.3069 54° Northeast 489 563 29,300 2,100 Climbing Oakland Center
04:44PM 38.6786 -121.1494 53° Northeast 498 573 32,100 2,220 Climbing Oakland Center
04:45PM 38.7589 -121.0078 54° Northeast 494 568 34,000 1,620 Climbing Oakland Center
04:46PM 38.8408 -120.8664 53° Northeast 493 567 35,500 1,320 Climbing Oakland Center
04:47PM 38.9233 -120.7233 53° Northeast 495 570 36,800 720 Climbing Oakland Center
04:48PM 39.0061 -120.5806 53° Northeast 498 573 37,000 60 Climbing Oakland Center
04:49PM 39.1067 -120.4044 54° Northeast 506 582 37,000  Level Oakland Center
04:50PM 39.1925 -120.2556 53° Northeast 514 592 37,000  Level Oakland Center
04:51PM 39.2728 -120.1128 54° Northeast 514 592 37,000  Level Oakland Center
04:52PM 39.3603 -119.9633 53° Northeast 518 596 37,000  Level Oakland Center
04:53PM 39.4453 -119.8131 54° Northeast 516 594 37,000  Level Oakland Center
04:54PM 39.5292 -119.6611 54° Northeast 516 594 37,000  Level Oakland Center
04:56PM 39.6306 -119.4803 54° Northeast 514 592 37,000  Level Oakland Center
04:57PM 39.7150 -119.3264 54° Northeast 518 596 37,000  Level Oakland Center
04:58PM 39.8000 -119.1742 54° Northeast 517 595 37,000  Level Oakland Center
04:59PM 39.8839 -119.0217 54° Northeast 515 593 37,000  Level Oakland Center
05:00PM 39.9669 -118.8681 55° Northeast 514 592 37,000  Level Oakland Center
05:01PM 40.0511 -118.7153 54° Northeast 515 593 37,000  Level Oakland Center
05:02PM 40.1300 -118.5592 57° Northeast 514 592 37,000  Level Oakland Center
05:03PM 40.1797 -118.3822 70° East 514 592 37,000  Level Oakland Center
05:04PM 40.2317 -118.1864 71° East 512 589 37,000  Level Salt Lake Center
05:05PM 40.2772 -118.0169 71° East 513 590 37,000  Level Oakland Center
05:06PM 40.3317 -117.8192 70° East 516 594 37,000  Level Oakland Center
05:07PM 40.3781 -117.6508 70° East 514 592 37,000  Level Oakland Center
05:08PM 40.4300 -117.4514 71° East 515 593 37,000  Level Oakland Center
05:09PM 40.4750 -117.2808 71° East 515 593 37,000  Level Oakland Center
05:10PM 40.5211 -117.1106 70° East 513 590 37,000  Level Oakland Center
05:11PM 40.5739 -116.9075 71° East 514 592 37,000  Level Oakland Center
05:12PM 40.6197 -116.7356 71° East 513 590 37,000  Level Oakland Center
05:13PM 40.6681 -116.5633 70° East 517 595 37,000  Level Salt Lake Center
05:14PM 40.7217 -116.3644 70° East 515 593 37,000  Level Salt Lake Center
05:15PM 40.7672 -116.1928 71° East 516 594 37,000  Level Salt Lake Center
05:16PM 40.8197 -115.9919 71° East 518 596 37,000  Level Salt Lake Center
05:17PM 40.8656 -115.8217 70° East 515 593 37,000  Level Salt Lake Center
05:18PM 40.9161 -115.6219 71° East 513 590 37,000  Level Salt Lake Center
05:19PM 40.9608 -115.4508 71° East 515 593 37,000  Level Salt Lake Center
05:20PM 41.0092 -115.2500 72° East 513 590 37,000  Level Salt Lake Center
05:21PM 41.0547 -115.0794 70° East 512 589 37,000  Level Salt Lake Center
05:22PM 41.1075 -114.8789 71° East 515 593 37,000  Level Salt Lake Center
05:23PM 41.1475 -114.7117 72° East 513 590 37,000  Level Salt Lake Center
05:24PM 41.1931 -114.5306 71° East 516 594 37,000  Level Salt Lake Center
05:25PM 41.2372 -114.3492 72° East 518 596 37,000  Level Salt Lake Center
05:27PM 41.2919 -114.1319 71° East 517 595 37,000  Level Salt Lake Center
05:28PM 41.3369 -113.9511 72° East 517 595 37,000  Level Salt Lake Center
05:29PM 41.3742 -113.7656 75° East 519 597 37,000  Level Salt Lake Center
05:30PM 41.3986 -113.5739 80° East 524 603 37,000  Level Salt Lake Center
05:31PM 41.4200 -113.3864 81° East 517 595 37,000  Level Salt Lake Center
05:32PM 41.4431 -113.1964 81° East 520 598 37,000  Level Salt Lake Center
05:33PM 41.4725 -112.9683 80° East 521 600 37,000  Level Salt Lake Center
05:34PM 41.4953 -112.7783 81° East 519 597 37,000  Level Salt Lake Center
05:35PM 41.5181 -112.5889 81° East 519 597 37,000  Level Salt Lake Center
05:36PM 41.5403 -112.3989 81° East 518 596 37,000  Level Salt Lake Center
05:37PM 41.5594 -112.2081 82° East 516 594 37,000  Level Salt Lake Center
05:38PM 41.5794 -112.0167 82° East 518 596 37,000  Level Salt Lake Center
05:39PM 41.6003 -111.8250 82° East 519 597 37,000  Level Salt Lake Center
05:40PM 41.6458 -111.5975 75° East 524 603 37,000  Level Salt Lake Center
05:41PM 41.6828 -111.4094 75° East 523 602 37,000  Level Salt Lake Center
05:42PM 41.7192 -111.2194 76° East 525 604 37,000  Level Salt Lake Center
05:43PM 41.7553 -111.0303 76° East 525 604 37,000  Level Salt Lake Center
05:44PM 41.7903 -110.8378 76° East 528 608 37,000  Level Salt Lake Center
05:45PM 41.8319 -110.6239 75° East 530 610 37,000  Level Salt Lake Center
05:46PM 41.8608 -110.4411 78° East 527 606 37,000  Level Salt Lake Center
05:47PM 41.8869 -110.2236 81° East 526 605 37,000  Level Salt Lake Center
05:48PM 41.9089 -110.0383 81° East 526 605 37,000  Level Salt Lake Center
05:49PM 41.9328 -109.8197 82° East 530 610 37,000  Level Salt Lake Center
05:50PM 41.9536 -109.6325 81° East 529 609 37,000  Level Salt Lake Center
05:51PM 41.9747 -109.4439 81° East 530 610 37,000  Level Salt Lake Center
05:52PM 41.9983 -109.2242 82° East 531 611 37,000  Level Salt Lake Center
05:53PM 42.0189 -109.0369 82° East 528 608 37,000  Level Salt Lake Center
05:54PM 42.0419 -108.8169 82° East 529 609 37,000  Level Salt Lake Center
05:55PM 42.0617 -108.6283 82° East 530 610 37,000  Level Salt Lake Center
05:56PM 42.0844 -108.4089 82° East 530 610 37,000  Level Salt Lake Center
05:58PM 42.1033 -108.2214 82° East 528 608 37,000  Level Salt Lake Center
05:59PM 42.1214 -107.9986 84° East 534 615 37,000  Level Salt Lake Center
06:00PM 42.1378 -107.8106 83° East 532 612 37,000  Level Salt Lake Center
06:01PM 42.1558 -107.6294 82° East 516 594 37,000  Level Salt Lake Center
06:01PM 42.1708 -107.4758 82° East 518 596 37,000  Level Denver Center
06:02PM 42.1869 -107.2928 83° East 515 593 37,000  Level Denver Center
06:03PM 42.2061 -107.0794 83° East 514 592 37,000  Level Denver Center
06:04PM 42.2225 -106.8956 83° East 517 595 37,000  Level Denver Center
06:05PM 42.2397 -106.6819 84° East 515 593 37,000  Level Denver Center
06:07PM 42.2567 -106.4794 83° East 516 594 37,000  Level Denver Center
06:08PM 42.2706 -106.2961 84° East 514 592 37,000  Level Denver Center
06:09PM 42.2892 -106.0817 83° East 515 593 37,000  Level Denver Center
06:10PM 42.3025 -105.8964 84° East 517 595 37,000  Level Denver Center
06:11PM 42.3211 -105.6825 83° East 515 593 37,000  Level Denver Center
06:12PM 42.3336 -105.4981 85° East 516 594 37,000  Level Denver Center
06:13PM 42.3472 -105.3125 84° East 518 596 37,000  Level Denver Center
06:14PM 42.3625 -105.0947 85° East 523 602 37,000  Level Denver Center
06:15PM 42.3756 -104.9094 84° East 520 598 37,000  Level Denver Center
06:16PM 42.3889 -104.6931 85° East 523 602 37,000  Level Denver Center
06:17PM 42.4025 -104.4747 85° East 530 610 37,000  Level Denver Center
06:18PM 42.4161 -104.2881 84° East 530 610 37,000  Level Denver Center
06:19PM 42.4300 -104.0700 85° East 526 605 37,000  Level Denver Center
06:20PM 42.4414 -103.8822 85° East 526 605 37,000  Level Denver Center
06:21PM 42.4536 -103.6633 86° East 524 603 37,000  Level Denver Center
06:22PM 42.4656 -103.4744 85° East 528 608 37,000  Level Denver Center
06:23PM 42.4764 -103.2539 86° East 528 608 37,000  Level Denver Center
06:24PM 42.4875 -103.0642 85° East 528 608 37,000  Level Denver Center
06:25PM 42.4997 -102.8442 86° East 527 606 37,000  Level Denver Center
06:26PM 42.5089 -102.6542 86° East 529 609 37,000  Level Denver Center
06:27PM 42.5189 -102.4353 86° East 523 602 37,000  Level Denver Center
06:28PM 42.5275 -102.2483 86° East 521 600 37,000  Level Denver Center
06:29PM 42.5375 -102.0278 86° East 526 605 37,000  Level Denver Center
06:30PM 42.5450 -101.8414 87° East 520 598 37,000  Level Denver Center
06:31PM 42.5539 -101.6314 87° East 520 598 37,000  Level Denver Center
06:32PM 42.5603 -101.4450 87° East 517 595 37,000  Level Denver Center
06:33PM 42.5697 -101.2269 87° East 518 596 37,000  Level Denver Center
06:34PM 42.5758 -101.0394 87° East 519 597 37,000  Level Denver Center
06:35PM 42.5825 -100.8244 88° East 512 589 37,000  Level Denver Center
06:36PM 42.5892 -100.6378 87° East 515 593 37,000  Level Denver Center
06:38PM 42.5942 -100.4519 88° East 515 593 37,000  Level Denver Center
06:39PM 42.6014 -100.2364 87° East 514 592 37,000  Level Denver Center
06:40PM 42.6058 -100.0483 88° East 518 596 37,000  Level Denver Center
06:41PM 42.6103 -99.8597 88° East 510 587 37,000  Level Denver Center
06:42PM 42.6161 -99.6286 88° East 511 588 37,000  Level Minneapolis Center
06:43PM 42.6197 -99.4364 88° East 509 586 37,000  Level Denver Center
06:44PM 42.6239 -99.2475 88° East 503 579 37,000  Level Denver Center
06:45PM 42.6289 -99.0139 88° East 508 585 37,000  Level Minneapolis Center
06:46PM 42.6311 -98.8272 89° East 500 575 37,000  Level Minneapolis Center
06:47PM 42.6342 -98.6644 88° East 500 575 37,000  Level Minneapolis Center
06:48PM 42.6372 -98.4050 89° East 510 587 37,000  Level Minneapolis Center
06:49PM 42.6403 -98.2144 89° East 506 582 37,000  Level Minneapolis Center
06:50PM 42.6419 -98.0231 89° East 506 582 37,000  Level Minneapolis Center
06:51PM 42.6433 -97.8342 89° East 508 585 37,000  Level Minneapolis Center
06:52PM 42.6436 -97.6050 90° East 506 582 37,000  Level Minneapolis Center
06:53PM 42.6444 -97.4128 90° East 509 586 37,000  Level Minneapolis Center
06:54PM 42.6461 -97.2208 89° East 507 583 37,000  Level Minneapolis Center
06:55PM 42.6461 -97.0272 90° East 512 589 37,000  Level Minneapolis Center
06:56PM 42.6450 -96.8331 90° East 512 589 37,000 540 Level Minneapolis Center
06:58PM 42.6450 -96.6381 90° East 515 593 38,200 960 Climbing Minneapolis Center
06:59PM 42.6431 -96.4067 91° East 510 587 39,000 360 Climbing Minneapolis Center
07:00PM 42.6422 -96.2186 90° East 500 575 39,000  Level Minneapolis Center
07:01PM 42.6403 -96.0278 91° East 502 578 39,000  Level Minneapolis Center
07:02PM 42.6386 -95.8358 91° East 502 578 39,000  Level Minneapolis Center
07:03PM 42.6367 -95.6458 91° East 504 580 39,000  Level Minneapolis Center
07:04PM 42.6339 -95.4556 91° East 504 580 39,000  Level Minneapolis Center
07:05PM 42.6306 -95.2661 91° East 502 578 39,000  Level Minneapolis Center
07:06PM 42.6267 -95.0386 91° East 500 575 39,000  Level Minneapolis Center
07:07PM 42.6239 -94.8511 91° East 497 572 39,000  Level Minneapolis Center
07:08PM 42.6194 -94.6619 92° East 499 574 39,000  Level Minneapolis Center
07:09PM 42.6142 -94.4647 92° East 503 579 39,000  Level Minneapolis Center
07:10PM 42.6108 -94.2797 91° East 498 573 39,000  Level Minneapolis Center
07:11PM 42.6169 -94.1331 87° East 493 567 39,000  Level Minneapolis Center
07:12PM 42.6117 -93.9122 92° East 492 566 39,000  Level Minneapolis Center
07:13PM 42.6139 -93.6558 89° East 490 564 39,000  Level Minneapolis Center
07:14PM 42.6153 -93.4714 89° East 492 566 39,000  Level Minneapolis Center
07:15PM 42.6164 -93.2889 89° East 490 564 39,000  Level Minneapolis Center
07:16PM 42.6167 -93.1047 90° East 494 568 39,000  Level Minneapolis Center
07:17PM 42.6153 -92.8844 90° East 492 566 39,000  Level Minneapolis Center
07:18PM 42.6150 -92.7008 90° East 492 566 39,000  Level Minneapolis Center
07:19PM 42.6147 -92.5539 90° East 492 566 39,000  Level Minneapolis Center
07:20PM 42.6131 -92.3322 91° East 494 568 39,000  Level Minneapolis Center
07:22PM 42.6114 -92.1492 91° East 493 567 39,000  Level Minneapolis Center
07:23PM 42.6092 -91.9275 91° East 495 570 39,000  Level Minneapolis Center
07:24PM 42.6067 -91.7444 91° East 496 571 39,000  Level Minneapolis Center
07:25PM 42.6028 -91.5619 92° East 499 574 39,000  Level Minneapolis Center
07:26PM 42.6006 -91.3414 91° East 501 577 39,000  Level Minneapolis Center
07:27PM 42.5969 -91.1592 91° East 495 570 39,000  Level Minneapolis Center
07:28PM 42.5922 -90.9725 92° East 500 575 39,000  Level Minneapolis Center
07:29PM 42.5897 -90.7497 91° East 503 579 39,000  Level Chicago Center
07:30PM 42.5856 -90.5650 92° East 498 573 39,000  Level Chicago Center
07:31PM 42.5800 -90.3411 92° East 500 575 39,000  Level Chicago Center
07:32PM 42.5758 -90.1569 92° East 497 572 39,000  Level Chicago Center
07:33PM 42.5711 -89.9714 92° East 497 572 39,000  Level Chicago Center
07:34PM 42.5661 -89.7792 92° East 497 572 39,000  Level Chicago Center
07:35PM 42.5592 -89.5636 92° East 494 568 39,000  Level Chicago Center
07:36PM 42.5536 -89.3783 92° East 491 565 39,000  Level Chicago Center
07:37PM 42.5458 -89.1947 93° East 490 564 39,000  Level Chicago Center
07:38PM 42.5400 -89.0122 92° East 488 562 39,000  Level Chicago Center
07:39PM 42.5339 -88.8294 93° East 487 560 39,000  Level Chicago Center
07:40PM 42.5258 -88.6164 93° East 486 559 39,000  Level Chicago Center
07:42PM 42.5173 -88.4049 93° East  Level FlightAware Approximate
07:42PM 42.5103 -88.2525 93° East 484 557 39,000  Level Chicago Center
07:43PM 42.5028 -88.0669 93° East 489 563 39,000  Level Chicago Center
07:44PM 42.4989 -87.8853 92° East 488 562 39,000  Level Chicago Center
07:46PM 42.4997 -87.6811 90° East 484 557 39,000  Level Chicago Center
07:47PM 42.4986 -87.5011 90° East 481 554 39,000  Level Chicago Center
07:48PM 42.4981 -87.3231 90° East 476 548 39,000  Level Chicago Center
07:49PM 42.4964 -87.1447 91° East 475 547 39,000  Level Chicago Center
07:50PM 42.4947 -86.9319 91° East 473 544 39,000  Level Chicago Center
07:51PM 42.4933 -86.7542 91° East 473 544 39,000  Level Chicago Center
07:52PM 42.4911 -86.5764 91° East 474 545 39,000  Level Chicago Center
07:53PM 42.4889 -86.3994 91° East 475 547 39,000  Level Chicago Center
07:54PM 42.4858 -86.2233 91° East 473 544 39,000  Level Chicago Center
07:55PM 42.4822 -86.0461 92° East 475 547 39,000  Level Chicago Center
07:56PM 42.4794 -85.8350 91° East 473 544 39,000  Level Chicago Center
07:57PM 42.4750 -85.6589 92° East 473 544 39,000  Level Chicago Center
07:58PM 42.4733 -85.4797 91° East 478 550 39,000  Level Chicago Center
07:59PM 42.4700 -85.3042 91° East 473 544 39,000  Level Chicago Center
08:00PM 42.4656 -85.1308 92° East 465 535 39,000  Level Chicago Center
08:01PM 42.4606 -84.9231 92° East 464 534 39,000  Level Chicago Center
08:02PM 42.4547 -84.7492 93° East 464 534 39,000  Level Chicago Center
08:03PM 42.4553 -84.5747 90° East 466 536 39,000  Level Chicago Center
08:04PM 42.4806 -84.4036 79° East 463 533 39,000  Level Chicago Center
08:05PM 42.4986 -84.2867 78° East 461 531 39,000  Level Cleveland Center
08:06PM 42.5039 -84.1153 88° East 461 531 39,000  Level Cleveland Center
08:07PM 42.4967 -83.9372 93° East 461 531 39,000  Level Cleveland Center
08:08PM 42.4892 -83.7622 93° East 461 531 39,000  Level Cleveland Center
08:09PM 42.4833 -83.5903 93° East 461 531 39,000  Level Cleveland Center
08:10PM 42.4769 -83.4322 93° East 461 531 39,000  Level Cleveland Center
08:11PM 42.4667 -83.2572 94° East 461 531 39,000  Level Cleveland Center
08:12PM 42.4581 -83.0853 94° East 461 531 39,000  Level Cleveland Center
08:13PM 42.4469 -82.9131 95° East 461 531 39,000  Level Cleveland Center
08:14PM 42.4378 -82.7411 94° East 461 531 39,000  Level Cleveland Center
08:15PM 42.4286 -82.5664 94° East 461 531 39,000  Level Cleveland Center
08:16PM 42.4189 -82.3917 94° East 461 531 39,000  Level Cleveland Center
08:17PM 42.4089 -82.2169 94° East 466 536 39,000  Level Cleveland Center
08:18PM 42.3992 -82.0228 94° East 459 528 39,000  Level Cleveland Center
08:19PM 42.3883 -81.8706 95° East 464 534 39,000  Level Cleveland Center
08:20PM 42.3797 -81.7047 94° East 453 521 39,000 -60 Level Cleveland Center
08:21PM 42.3686 -81.5386 95° East 441 507 38,900 -540 Descending Cleveland Center
08:22PM 42.3575 -81.3728 95° East 441 507 38,000 -300 Descending Cleveland Center
08:24PM 42.3364 -81.0297 95° East 441 507 38,000  Level Cleveland Center
08:25PM 42.3244 -80.8669 96° East 447 514 38,000  Level Cleveland Center
08:26PM 42.3122 -80.6983 96° East 447 514 38,000  Level Cleveland Center
08:27PM 42.3017 -80.5356 95° East 448 516 38,000 -180 Level Cleveland Center
08:28PM 42.2892 -80.3669 96° East 443 510 37,700 -840 Descending Cleveland Center
08:29PM 42.2761 -80.2017 96° East 443 510 36,400 -1,320 Descending Cleveland Center
08:30PM 42.2631 -80.0361 96° East 443 510 35,100 -1,380 Descending Cleveland Center
08:31PM 42.2517 -79.8819 96° East 443 510 33,700 -1,440 Descending Cleveland Center
08:32PM 42.2381 -79.7081 96° East 453 521 32,300 -900 Descending Cleveland Center
08:33PM 42.2242 -79.5317 96° East 460 529 32,000 -180 Descending Cleveland Center
08:34PM 42.2097 -79.3553 96° East 465 535 32,000  Level Cleveland Center
08:35PM 42.1933 -79.1792 97° East 471 542 32,000  Level Cleveland Center
08:36PM 42.1575 -78.9894 104° East 471 542 32,000  Level Cleveland Center
08:37PM 42.1133 -78.8225 110° East 471 542 32,000  Level Cleveland Center
08:38PM 42.0731 -78.6586 108° East 471 542 32,000  Level Cleveland Center
08:39PM 42.0306 -78.4894 109° East 471 542 32,000  Level Cleveland Center
08:40PM 41.9858 -78.3261 110° East 463 533 32,000  Level Cleveland Center
08:41PM 41.9450 -78.1628 109° East 463 533 32,000  Level Cleveland Center
08:42PM 41.9019 -78.0025 110° East 458 527 32,000  Level Cleveland Center
08:43PM 41.8675 -77.8644 108° East 427 491 32,000  Level Cleveland Center
08:44PM 41.8894 -77.7381 77° East 351 404 32,000  Level Cleveland Center
08:45PM 41.9869 -77.7197 North 263 303 32,000  Level Cleveland Center
08:46PM 42.0356 -77.8406 298° West 211 243 32,000  Level Cleveland Center
08:47PM 42.0678 -77.9706 289° West 282 325 32,000  Level Cleveland Center
08:48PM 42.1000 -78.0981 289° West 323 372 32,000  Level Cleveland Center
08:50PM 42.0964 -78.3278 269° West 305 351 32,000  Level Cleveland Center
08:51PM 42.0108 -78.3336 183° South 237 273 32,000  Level Cleveland Center
08:53PM 41.9292 -78.1047 116° Southeast 273 314 32,000  Level Cleveland Center
08:54PM 41.8950 -77.9778 110° East 314 361 32,000  Level Cleveland Center
08:55PM 41.8650 -77.8506 108° East 348 400 32,000  Level Cleveland Center
08:56PM 41.8889 -77.7242 76° East 336 387 32,000  Level Cleveland Center
08:57PM 41.9931 -77.7139 North 258 297 32,000  Level Cleveland Center
08:58PM 42.0439 -77.8375 299° West 236 272 32,000  Level Cleveland Center
08:59PM 42.0761 -77.9675 289° West 307 353 32,000  Level Cleveland Center
09:00PM 42.1081 -78.0950 289° West 329 379 32,000  Level Cleveland Center
09:01PM 42.1378 -78.2086 289° West 353 406 32,000  Level Cleveland Center
09:02PM 42.1086 -78.3217 251° West 335 386 32,000  Level Cleveland Center
09:03PM 42.0278 -78.3414 190° South 253 291 32,000  Level Cleveland Center
09:04PM 41.9697 -78.2483 130° Southeast 213 245 32,000  Level Cleveland Center
09:05PM 41.9294 -78.1158 112° Southeast 263 303 32,000  Level Cleveland Center
09:06PM 41.8997 -77.9969 109° East 322 371 32,000  Level Cleveland Center
09:07PM 41.8675 -77.8700 109° East 346 398 32,000  Level Cleveland Center
09:08PM 41.8811 -77.7383 82° East 352 405 32,000  Level Cleveland Center
09:09PM 41.9867 -77.7114 11° North 252 290 32,000  Level Cleveland Center
09:10PM 42.0417 -77.8319 302° West 217 250 32,000  Level Cleveland Center
09:11PM 42.0761 -77.9592 290° West 284 327 32,000  Level Cleveland Center
09:12PM 42.1058 -78.0839 288° West 322 371 32,000  Level Cleveland Center
09:13PM 42.1311 -78.1864 288° West 348 400 32,000  Level Cleveland Center
09:14PM 42.1189 -78.3158 263° West 341 392 32,000  Level Cleveland Center
09:15PM 42.0364 -78.3522 198° South 260 299 32,000  Level Cleveland Center
09:16PM 41.9700 -78.2678 137° Southeast 224 258 32,000  Level Cleveland Center
09:17PM 41.9339 -78.1297 109° East 255 293 32,000  Level Cleveland Center
09:18PM 41.9017 -77.9997 108° East 304 350 32,000  Level Cleveland Center
09:19PM 41.8714 -77.8767 108° East 338 389 32,000  Level New York Center
09:20PM 41.8319 -77.7331 110° East 372 428 32,000  Level New York Center
09:21PM 41.7944 -77.5872 109° East 403 464 32,000  Level New York Center
09:22PM 41.7533 -77.4303 109° East 425 489 32,000  Level New York Center
09:23PM 41.7106 -77.2647 109° East 449 517 32,000  Level New York Center
09:24PM 41.6631 -77.0989 111° Southeast 470 541 32,000  Level New York Center
09:25PM 41.6197 -76.9339 109° East 470 541 32,000  Level New York Center
09:26PM 41.5761 -76.7717 110° East 470 541 32,000  Level New York Center
09:27PM 41.5264 -76.5956 111° Southeast 464 534 32,000  Level New York Center
09:28PM 41.4822 -76.4311 110° East 464 534 32,000  Level New York Center
09:29PM 41.4339 -76.2664 111° Southeast 464 534 32,000  Level New York Center
09:30PM 41.3875 -76.0939 110° East 480 552 32,000  Level New York Center
09:31PM 41.3461 -75.9497 111° Southeast 479 551 32,000  Level New York Center
09:32PM 41.3008 -75.7861 110° East 472 543 32,000 -840 Level New York Center
09:33PM 41.2494 -75.6194 112° Southeast 472 543 30,400 -3,060 Descending New York Center
09:34PM 41.1936 -75.4556 114° Southeast 477 549 25,900 -3,720 Descending New York Center
09:35PM 41.1356 -75.2861 114° Southeast 495 570 23,100 -2,400 Descending New York Center
09:36PM 41.0814 -75.1256 114° Southeast 490 564 21,100 -2,100 Descending New York Center
09:37PM 41.0289 -74.9600 113° Southeast 469 540 19,000 -1,080 Descending New York Center
09:38PM 40.9822 -74.8033 111° Southeast 444 511 19,000  Level New York Center
09:39PM 40.9481 -74.6419 106° East 449 517 19,000  Level New York Center
09:40PM 40.9167 -74.4833 105° East 439 505 19,000  Level New York TRACON
09:41PM 40.8833 -74.3500 108° East 438 504 19,000  Level New York TRACON
09:42PM 40.8500 -74.2000 106° East 433 498 19,000 -300 Level New York TRACON
09:43PM 40.8000 -74.0500 114° Southeast 421 484 18,400 -1,500 Descending New York TRACON
09:44PM 40.7167 -73.9833 149° Southeast 390 449 16,100 -2,220 Descending New York TRACON
09:45PM 40.6000 -73.9333 162° South 388 447 13,800 -1,800 Descending New York TRACON
09:46PM 40.5000 -73.9000 166° South 356 410 12,500 -1,680 Descending New York TRACON
09:47PM 40.4500 -73.8333 135° Southeast 323 372 10,800 -1,860 Descending New York TRACON
09:48PM 40.3833 -73.7667 143° Southeast 304 350 9,000 -1,560 Descending New York TRACON
09:49PM 40.3667 -73.6500 101° East 315 362 7,600 -1,500 Descending New York TRACON
09:50PM 40.4333 -73.5833 37° Northeast 289 333 5,900 -1,860 Descending New York TRACON
09:51PM 40.5000 -73.5500 21° North 279 321 4,100 -1,320 Descending New York TRACON
09:52PM 40.5667 -73.5000 30° Northeast 272 313 3,500 -540 Descending New York TRACON
09:53PM 40.6333 -73.5167 349° North 232 267 3,100 -300 Descending New York TRACON
09:54PM 40.6833 -73.5500 333° Northwest 219 252 2,900 -360 Descending New York TRACON
09:55PM 40.7167 -73.6000 311° West 182 209 2,400 -540 Descending New York TRACON